Regional Weather Roundup
Issued by NWS

Home | Current Version | Previous Version | Text Only | Print | Product List | Glossary On
Versions: 1 2 3 4 5 6 7 8 9 10 11 12 13 14 15 16 17 18 19 20 21 22 23 24 25 26 27 28 29 30 31 32 33 34 35 36 37 38 39 40 41 42 43 44 45 46 47 48 49 50
000
ASUS43 KMKX 190311
RWRWI

WISCONSIN REGIONAL WEATHER ROUNDUP
NATIONAL WEATHER SERVICE MILWAUKEE/SULLIVAN WI
1000 PM CDT WED OCT 18 2017

NOTE: "FAIR" INDICATES FEW OR NO CLOUDS BELOW 12,000 FEET WITH NO
SIGNIFICANT WEATHER AND/OR OBSTRUCTIONS TO VISIBILITY.

WIZ001-002-006>008-014>016-023>028-190400-
NORTHWEST WISCONSIN

CITY           SKY/WX    TMP DP  RH WIND       PRES   REMARKS
SUPERIOR ARPT  PTCLDY    53  20  27 W9        29.86R
ASHLAND        CLEAR     55  20  25 W14G26    29.85R
HAYWARD        CLEAR     55  19  24 W8G17     29.90R
SIREN          PTCLDY    53  23  31 W9        29.94R
CUMBERLAND     CLEAR     52  23  32 W14G22    29.95R
RICE LAKE      CLEAR     53  24  32 W9        29.96R
CHETEK         CLEAR     54  26  33 W10       29.94R
LADYSMITH      CLOUDY    54  25  33 W10G17    29.93R
EAU CLAIRE     CLEAR     55  24  30 W12       29.94R
MENOMONIE      CLEAR     55  23  29 W13G21    29.97R
NEW RICHMOND   CLEAR     50  23  34 W9        29.98R
OSCEOLA        CLEAR     53  26  34 W10       30.00R
$$

WIZ003>005-009-010-017-018-190400-
NORTH CENTRAL WISCONSIN

CITY           SKY/WX    TMP DP  RH WIND       PRES   REMARKS
MANITOWISH WTR CLOUDY    54  26  34 W10       29.84R
ARBOR VITAE    PTCLDY    57  26  30 NW9G20    29.85R
WOODRUFF       PTCLDY    57  26  30 NW9G20    29.85R
RHINELANDER    CLOUDY    58  40  51 W13G28    29.85R
EAGLE RIVER    CLEAR     57  31  37 W18G24    29.83R
LAND O LAKES   CLEAR     57  38  49 W8G17     29.83R
PHILLIPS       CLOUDY    55  23  29 W6        29.88R
TOMAHAWK       CLOUDY    57  32  38 W9G18     29.87R
MEDFORD        CLEAR     55  36  49 W9        29.89R
MERRILL        PTCLDY    59  39  48 W15G21    29.86S
$$

WIZ029-030-035-036-043>047-190400-
CENTRAL WISCONSIN

CITY           SKY/WX    TMP DP  RH WIND       PRES   REMARKS
WAUSAU         CLOUDY    61  43  51 W16G26    29.86R
MOSINEE        PTCLDY    59  46  63 W17G23    29.89R
MARSHFIELD     CLOUDY    60  39  45 W15G22    29.89R
STEVENS POINT  CLOUDY    57  46  67 SW8       29.89S
WAUPACA        CLEAR     63  47  56 SW10G16   29.89S
WAUTOMA        CLEAR     61  47  59 SW8       29.92
WISC RAPIDS    CLEAR     56  47  71 SW7       29.91R
CAMP DOUGLAS   PTCLDY    59  48  67 SW9       29.93R
$$

WIZ011>013-019>022-031-037>040-048>050-190400-
NORTHEAST WISCONSIN

CITY           SKY/WX    TMP DP  RH WIND       PRES   REMARKS
ANTIGO         PTCLDY    58  45  62 W13G23    29.85S
SHAWANO        CLEAR     63  47  55 SW6       29.85R
OCONTO         CLEAR     64  46  51 SW14G21   29.84R
STURGEON BAY   CLEAR     64  45  49 SW22      29.83S
GREEN BAY      CLEAR     62  47  57 SW13      29.87R
MANITOWOC      CLEAR     64  44  48 SW13G24   29.90S
APPLETON       PTCLDY    59  43  55 SW13      29.88R
CLINTONVILLE   NOT AVBL
OSHKOSH        CLEAR     61  45  55 SW17G24   29.90S
$$

WIZ032>034-041-042-053>061-190400-
SOUTHWEST WISCONSIN

CITY           SKY/WX    TMP DP  RH WIND       PRES   REMARKS
LA CROSSE      CLEAR     63  40  42 NW12      29.96R
SPARTA         CLEAR     58  49  71 W5        29.95R
VIROQUA        CLEAR     57  48  72 SW7       29.97R
BOSCOBEL       CLEAR     61  47  59 SW5       29.97R
PRAIRIE DU CHI CLEAR     62  46  56 CALM      29.98R
PLATTEVILLE    CLEAR     56  49  74 S9        30.01R
$$

WIZ056-057-062-063-064-067-068-190400-
SOUTH CENTRAL WISCONSIN

CITY           SKY/WX    TMP DP  RH WIND       PRES   REMARKS
REEDSBURG      CLEAR     61  47  58 SW8       29.95R
BARABOO/DELLS  CLEAR     61  45  54 SW15G21   29.95R
LONE ROCK      CLEAR     60  49  66 SW12      29.97R
MINERAL POINT  CLEAR     59  46  63 S10       30.00R
MADISON        CLEAR     63  45  51 SW7       29.98R
MIDDLETON      CLEAR     63  45  51 SW13G18   29.98S
WATERTOWN      CLOUDY    59  45  59 SW12      29.98S
MONROE         CLEAR     55  45  67 S12       30.00S
JANESVILLE     CLEAR     59  43  55 SW8       30.01S
$$

WIZ051-052-058>065-066-070>072-190400-
SOUTHEAST WISCONSIN

CITY           SKY/WX    TMP DP  RH WIND       PRES   REMARKS
MILWAUKEE      PTCLDY    62  43  49 SW15      30.00R
WAUKESHA       NOT AVBL
MILWAUKEE/TIMM CLEAR     61  37  41 SW9G18    30.00R
RACINE         CLEAR     62  43  49 SW13      30.02R
BURLINGTON     CLEAR     57  45  65 SW12      30.01S
KENOSHA        CLEAR     62  42  47 SW14G21   30.02R
FOND DU LAC    CLEAR     62  42  47 SW13G22   29.93S
SHEBOYGAN      CLEAR     62  45  53 SW15G24   29.93S
WEST BEND      CLEAR     61  41  48 SW16G23   29.96S
JUNEAU         CLEAR     57  44  62 S10G17    29.97S
$$

LSZ147-162-190400-
LAKE SUPERIOR

STATION/POSITION TIME  TEMP    WIND        PRES    WAVE
                       AIR SEA DIR/SP/G            HT/PER
                 (UTC) (F)     (DEG/KT/KT) (MB)    (FT/S)
W MID LAKE BUOY  0250   57 53              1007.0R   6/ 6
DEVILS ISLAND    0300   57     260/ 26/ 33 1009.1R
SAXON HARBOR     0230   59     210/  5/ 10 1009.5R
$$

LMZ867-665-643>646-190400-
LAKE MICHIGAN

STATION/POSITION TIME  TEMP    WIND        PRES    WAVE
                       AIR SEA DIR/SP/G            HT/PER
                 (UTC) (F)     (DEG/KT/KT) (MB)    (FT/S)
S GREEN BAY BUOY 0300   62 58  210/ 19/ 25 1010.1
N MID LAKE BUOY  0250   62 59  200/ 25/ 29 1009.3R  13/ 8
NORTHPORT PIER   0240   59     170/  4/  8 1009.1S
KEWAUNEE LAKESHO 0242   62     210/  8/ 11 1010.9F
SHEBOYGAN LAKESH 0300   64     210/ 16/ 19 1013.0F
PORT WASHINGTON  0230   64     240/  8/ 12 1015.2S
ATWATER BUOY     0109   63 52  210/ 12/ 14 1015.2R
MILWAUKEE LAKESH 0250   64     230/ 17/ 20   N/A
S MID LAKE BUOY  0250   63 61  230/ 19/ 21 1016.3R   4/ 5
KENOSHA   LAKESH 0300   63     220/ 11/ 16 1016.3
$$

TC  - TEMPERATURE IN CELSIUS
VSB - VISIBILITY IN STATUTE MILES
WCI - WIND CHILL INDEX
HX  - HEAT INDEX




USA.gov is the U.S. government's official web portal to all federal, state and local government web resources and services.